Temperature
27 26 25 24 23 22 21 21 21 20 20 20 20 20 19 19 19 19 19 19 19 19 19 19 19 19 18 18 18 18 18 19 19 19 19 19 19 19 19 18 18 18 18
27 26 25 24 23 22 21 21 21 20 20 20 20 20 20 19 19 19 19 19 19 19 19 19 19 19 18 18 18 18 18 18 18 19 19 19 19 19 19 19 18 18 18
27 26 25 25 24 23 22 21 21 21 20 20 20 20 20 19 19 19 19 19 19 19 19 19 18 18 18 18 18 18 18 18 18 18 19 18 18 18 19 19 18 18 18
28 27 26 25 24 23 22 22 21 21 21 20 20 20 20 20 19 19 19 19 19 19 19 19 19 18 18 18 18 18 18 18 18 18 19 19 19 19 18 18 18 18 18
28 27 26 25 25 24 23 22 21 21 21 20 20 20 20 20 19 19 19 19 19 19 19 19 19 18 18 18 18 18 18 18 18 18 19 19 19 19 19 18 18 18 18
28 27 27 26 25 24 23 22 21 21 21 21 20 20 20 20 19 19 19 19 19 19 19 18 18 18 18 18 18 18 18 18 18 18 18 18 18 19 19 19 19 18 18
29 28 27 26 25 24 23 23 22 21 21 21 20 20 20 20 20 19 19 19 19 19 19 18 18 18 18 18 18 18 18 18 18 18 18 18 18 18 19 19 19 18 18
29 28 27 26 25 24 24 23 22 21 21 21 21 20 20 20 20 19 19 19 19 19 19 18 18 18 18 18 18 18 18 18 18 18 18 18 18 18 18 18 18 18 18
29 28 27 26 25 24 24 23 22 22 21 21 21 20 20 20 20 19 19 19 19 19 18 18 18 18 18 18 18 18 18 18 18 18 18 18 18 18 18 18 18 18 18
29 28 27 26 25 24 23 23 22 22 21 21 21 20 20 20 20 19 19 19 19 19 18 18 18 18 18 18 18 17 17 17 17 17 17 18 18 18 17 18 18 18 18
29 28 27 26 25 25 24 23 22 22 21 21 20 20 20 20 19 19 19 19 19 18 18 18 18 18 18 18 18 17 17 17 17 17 17 17 17 17 17 17 17 17 17
28 28 27 26 25 25 24 23 22 22 21 21 20 20 20 20 19 19 19 19 19 18 18 18 18 18 18 18 18 17 17 17 17 17 17 17 17 17 17 17 17 17 17
27 27 27 26 25 24 24 23 22 22 21 21 20 20 20 19 19 19 19 19 18 18 18 18 18 18 18 18 18 17 17 17 17 17 17 17 17 17 17 17 17 17 17
27 27 26 25 25 24 23 23 22 22 21 21 20 20 19 19 19 19 19 18 18 18 18 18 18 18 18 18 18 18 17 17 17 17 17 17 17 17 17 17 17 17 17
27 26 26 25 24 23 23 22 22 21 21 20 20 20 19 19 19 19 18 18 18 18 18 18 18 18 18 18 18 18 17 17 17 17 17 17 17 17 17 16 16 16 16
26 26 25 24 24 23 22 22 21 21 21 20 20 19 19 19 19 19 19 18 18 18 18 18 18 18 17 18 17 17 17 17 17 17 17 17 17 17 17 17 16 16 16
25 25 25 24 23 23 22 22 21 21 21 20 20 19 19 19 19 19 18 18 18 18 18 18 17 17 18 18 17 17 17 17 17 16 16 16 16 16 16 16 16 16 16
24 24 24 23 23 23 22 21 21 21 20 20 20 19 19 19 19 18 18 18 18 18 18 18 17 17 18 18 18 17 17 16 16 16 16 16 16 16 16 16 16 16 16
23 23 23 23 22 22 22 21 21 20 20 20 19 19 19 19 18 18 18 18 18 18 18 17 17 17 18 18 17 17 17 16 16 16 16 16 16 16 16 16 16 16 16
22 22 22 22 22 21 21 20 20 20 20 19 19 19 19 18 18 18 18 18 18 17 17 17 17 17 17 18 17 17 17 16 16 16 16 16 16 16 16 16 15 15 15
21 21 21 21 21 20 20 20 20 19 19 19 19 19 18 18 18 18 18 18 17 17 17 17 17 17 17 17 17 17 17 16 16 16 15 15 15 15 15 15 15 15 15
20 20 20 20 20 19 19 19 19 19 19 19 19 18 18 18 18 18 18 17 17 17 17 17 17 17 17 17 17 17 17 16 16 16 15 15 15 15 15 15 15 15 14
19 19 19 19 19 19 19 19 19 18 18 18 18 18 18 18 18 18 17 17 17 17 17 17 16 16 16 16 17 17 16 16 16 15 15 15 15 15 15 15 15 14 14
18 18 18 18 18 18 18 18 18 18 18 18 18 18 18 17 17 17 17 17 17 17 17 17 16 16 16 16 16 16 16 16 15 15 15 15 15 15 15 14 14 14 14
18 18 17 17 17 17 17 17 17 17 17 17 17 17 17 17 17 17 17 17 17 17 17 17 17 16 16 16 16 16 16 16 16 15 15 15 15 15 14 14 14 14 14
17 17 17 16 16 16 16 16 17 17 17 17 17 17 17 17 17 17 17 17 17 17 17 17 16 16 16 16 16 16 16 16 15 15 15 14 14 14 14 14 14 14 14
Wind_Speed
15 14 14 14 14 12 10 9 8 7 6 4 4 3 3 2 2 3 4 4 3 3 1 1 2 1 2 3 2 1 0 1 0 0 1 1 3 3 3 2 2 3 4
15 15 14 14 14 13 12 10 9 8 7 5 4 4 3 3 3 3 4 3 3 3 2 2 2 2 2 2 1 1 0 1 1 0 1 1 0 1 3 3 3 3 2
17 17 15 14 14 14 13 11 10 9 8 7 5 4 3 2 2 4 3 3 2 2 2 3 2 2 2 2 1 1 1 0 1 0 1 1 1 0 0 1 2 2 1
16 16 16 16 15 15 14 11 11 10 8 7 6 7 5 4 4 3 3 3 3 2 3 3 2 1 2 2 1 2 0 1 1 1 1 1 1 0 0 1 1 2 2
14 16 15 14 14 14 14 12 11 10 9 8 7 6 5 4 4 3 5 4 3 3 3 3 2 2 2 2 1 1 0 1 1 1 1 0 1 2 1 1 1 2 2
12 13 13 12 12 14 14 13 12 10 9 9 8 7 6 5 4 4 4 3 3 3 4 4 3 2 2 2 2 1 1 1 1 2 2 1 1 1 1 1 2 2 2
13 13 13 13 13 14 14 14 14 12 11 10 8 7 6 6 6 5 5 5 4 4 4 4 3 2 2 2 2 2 1 1 1 2 2 2 2 1 1 1 1 1 1
11 13 13 12 11 13 13 14 14 13 12 11 8 7 6 6 5 5 4 5 4 4 5 5 4 4 3 3 3 3 3 2 2 3 2 2 3 2 2 1 1 1 1
10 12 13 12 10 9 11 12 13 13 12 12 10 8 7 6 6 6 6 4 3 4 6 6 5 4 3 2 3 2 2 2 3 2 2 3 3 2 2 1 1 1 2
9 10 11 12 12 11 10 10 11 11 11 11 10 10 8 7 6 5 6 5 5 4 5 6 6 5 4 3 3 3 3 3 2 2 1 2 3 3 2 2 2 1 2
7 7 8 10 11 11 12 13 12 11 11 11 9 9 9 8 7 6 5 6 5 5 5 6 6 5 5 4 4 4 3 4 3 3 2 2 2 2 3 2 2 2 2
5 7 7 8 9 10 10 10 11 11 11 9 8 8 8 8 9 8 6 5 6 6 5 5 5 5 5 5 4 5 4 4 4 4 3 3 3 2 3 3 3 2 2
5 6 6 7 7 7 7 8 9 10 9 9 9 8 8 8 8 7 7 6 6 6 6 5 5 5 5 5 5 5 4 4 4 4 3 3 3 3 2 3 3 3 3
5 5 5 6 5 5 5 5 6 7 8 8 8 8 8 7 7 5 6 6 6 6 6 5 5 5 5 5 5 5 5 5 4 3 3 3 3 3 3 3 3 3 3
3 4 5 5 5 5 5 5 5 6 7 7 7 7 7 7 6 6 5 6 6 7 6 5 5 5 5 5 5 5 6 5 5 4 4 4 3 3 3 3 2 3 3
1 2 4 5 5 5 6 5 5 5 6 6 7 6 6 6 6 6 6 6 6 6 5 6 5 6 6 5 6 5 5 5 5 5 4 4 4 4 5 4 4 4 4
3 3 1 3 4 5 6 5 5 6 6 6 6 6 6 6 6 7 7 6 6 6 5 6 6 6 5 5 5 5 5 5 5 5 4 5 4 3 2 4 5 6 7
4 3 1 1 3 4 5 5 6 5 6 7 6 6 6 6 6 6 6 6 6 6 6 6 6 6 6 6 6 6 5 5 5 4 4 4 2 3 3 4 4 5 4
5 4 3 1 0 2 3 4 6 6 6 6 6 6 6 6 6 6 6 5 5 6 6 6 6 6 5 7 7 7 5 5 5 5 5 4 3 4 3 3 4 5 4
5 5 4 2 2 2 3 2 4 5 5 5 5 6 6 6 6 6 5 5 5 6 6 6 6 6 6 8 9 8 5 5 4 4 5 5 5 4 4 3 4 5 4
5 5 5 4 3 2 3 2 2 3 4 4 4 5 5 6 6 5 5 5 5 6 6 6 6 6 7 8 10 11 6 5 4 4 4 3 6 6 5 5 4 5 5
5 5 5 4 3 2 2 2 1 0 1 2 4 4 4 5 6 5 5 5 6 6 7 6 6 6 6 7 9 11 10 6 4 4 3 2 4 5 6 5 5 5 5
4 4 4 4 3 2 2 2 2 2 1 1 2 3 4 3 3 4 5 6 6 6 6 6 6 5 5 5 8 10 10 9 5 3 3 3 5 4 4 6 6 4 4
4 4 4 4 3 3 2 1 1 1 0 1 2 3 4 4 3 4 5 5 5 6 5 5 5 4 4 4 4 5 6 7 6 4 3 5 6 6 5 4 4 4 5
3 3 3 2 3 3 3 2 1 1 1 2 2 4 4 4 4 5 4 5 4 5 5 5 4 4 4 4 6 6 5 5 4 3 3 3 3 3 4 4 4 5 5
2 3 4 4 3 3 3 2 1 2 3 3 4 4 4 4 4 5 5 5 6 7 6 5 4 3 4 6 7 7 5 4 5 3 4 4 4 5 4 4 4 5 5
Wind_Direction
173 166 168 164 159 156 157 159 163 156 159 162 159 156 156 153 136 137 136 145 144 134 128 117 132 97 91 78 67 62 116 203 160 93 154 183 164 169 172 179 174 171 162
171 168 173 171 168 163 163 164 167 165 167 165 164 165 160 162 155 132 129 139 139 146 144 127 154 120 114 102 102 110 106 290 99 172 172 107 43 253 188 168 179 167 169
174 174 178 176 173 169 169 172 170 168 174 169 172 168 149 172 147 141 149 150 145 136 97 121 125 130 133 133 161 137 181 266 276 131 104 133 167 160 142 190 144 157 162
177 177 180 180 178 173 172 169 165 167 172 173 181 178 176 178 173 159 148 148 149 145 131 123 119 131 120 139 184 124 269 231 265 239 187 133 100 145 142 266 151 180 182
175 176 180 179 176 170 170 166 161 166 170 176 181 182 182 174 158 155 147 159 168 169 150 132 132 139 138 134 116 108 26 293 312 312 283 201 184 241 191 198 207 213 177
169 171 173 169 174 170 168 164 161 166 169 176 182 182 179 163 157 160 159 174 172 173 168 157 151 153 145 136 145 165 181 264 353 333 322 325 306 277 260 225 217 201 198
167 165 167 170 173 171 170 166 165 170 173 178 182 181 182 173 174 182 178 183 186 178 169 169 160 164 149 153 159 183 195 199 232 276 297 318 300 317 312 319 283 279 211
169 164 167 167 170 172 171 169 168 172 176 180 181 180 183 188 187 189 194 193 194 174 160 165 168 169 172 182 175 193 182 190 230 247 273 291 298 312 311 310 311 300 277
162 164 167 164 161 172 171 169 167 172 178 181 178 180 184 193 190 186 195 197 185 172 163 170 175 171 172 175 175 200 196 189 219 244 245 269 280 286 298 302 279 258 276
154 155 160 165 166 171 173 165 167 171 177 178 181 184 186 193 191 189 188 191 189 178 167 170 172 171 172 181 196 206 202 208 225 239 238 284 303 309 303 300 288 258 255
151 154 161 165 166 166 170 169 171 173 178 181 180 182 183 191 190 192 193 189 187 178 176 175 175 178 180 190 205 222 203 212 228 241 228 233 265 306 308 302 292 286 278
152 153 158 162 163 169 167 168 170 176 178 175 176 183 184 186 189 193 196 191 184 182 182 184 183 190 190 196 204 223 222 216 220 232 242 246 248 256 287 304 302 291 279
158 158 154 156 161 167 164 167 175 175 173 173 179 183 186 189 191 192 188 189 189 184 186 188 193 200 195 199 208 218 227 230 227 225 234 244 254 264 267 278 287 290 286
137 143 146 142 149 151 149 156 174 170 169 172 178 182 187 185 188 187 186 188 188 185 188 196 200 202 198 202 207 217 218 223 228 226 228 232 233 245 263 263 274 283 287
134 142 143 141 146 147 150 161 177 170 165 169 177 179 182 179 181 178 185 186 193 194 189 194 204 211 205 211 209 222 221 216 225 228 227 225 214 221 244 265 285 289 286
85 115 135 142 150 159 163 166 175 165 159 168 175 172 175 176 176 176 180 188 193 192 190 196 202 216 219 206 202 218 229 217 219 229 234 224 213 219 220 243 261 262 267
38 40 79 147 159 166 165 171 175 171 167 172 175 171 175 177 178 185 180 184 191 191 197 201 204 204 206 207 200 216 232 234 231 230 233 247 231 201 222 242 247 250 242
13 9 9 125 169 172 173 173 174 170 172 174 177 174 177 182 181 183 184 185 188 193 201 208 207 198 205 207 203 213 225 237 238 231 231 239 246 246 246 251 250 244 238
2 4 351 330 182 149 152 174 176 175 180 183 185 182 184 185 185 191 191 192 193 199 203 203 207 205 200 202 202 201 219 229 233 230 230 224 225 234 239 257 260 257 255
14 7 358 24 36 71 117 155 193 185 190 190 190 186 188 190 189 195 195 199 203 207 206 208 211 209 205 200 197 196 218 233 235 231 225 223 218 218 218 237 256 259 265
25 20 15 30 33 44 118 140 172 194 200 191 189 191 195 197 190 193 200 203 210 210 214 215 213 209 206 197 196 196 214 233 241 242 237 219 194 202 221 230 250 257 269
20 14 16 20 38 40 110 130 137 283 217 198 189 191 203 216 197 192 202 207 212 218 219 216 219 216 201 194 202 202 214 233 243 258 261 208 180 201 223 231 248 260 272
11 2 11 10 7 15 35 80 39 22 9 220 205 207 211 210 195 201 204 210 212 219 224 219 218 219 205 191 193 199 211 224 235 259 267 227 212 214 222 237 245 249 250
353 350 354 353 353 353 358 39 35 38 348 249 224 221 215 216 198 211 215 220 220 221 223 225 224 221 204 185 182 201 214 223 234 256 255 221 219 229 240 238 234 234 237
339 338 332 334 333 335 338 352 347 315 252 253 244 242 233 217 206 212 221 218 220 216 219 228 224 221 219 205 185 190 201 209 213 219 222 228 223 225 229 228 226 230 229
329 327 323 323 321 319 314 312 296 278 257 249 246 249 245 228 221 217 224 226 221 208 203 205 212 208 200 180 175 178 178 183 174 189 226 234 235 234 232 233 230 228 227
Height
1506 1510 1513 1517 1519 1521 1523 1525 1528 1529 1531 1533 1534 1536 1537 1538 1539 1540 1541 1541 1542 1543 1543 1544 1545 1546 1546 1547 1548 1549 1549 1551 1552 1552 1553 1553 1554 1554 1555 1555 1556 1557 1557
1503 1507 1511 1514 1517 1519 1521 1523 1526 1528 1530 1531 1533 1535 1537 1538 1539 1540 1540 1541 1542 1542 1543 1543 1544 1545 1546 1547 1547 1548 1549 1550 1551 1552 1552 1553 1555 1554 1555 1555 1555 1556 1556
1498 1503 1507 1511 1514 1516 1518 1521 1524 1526 1528 1530 1532 1535 1536 1537 1539 1539 1540 1541 1542 1542 1543 1543 1544 1545 1545 1546 1547 1547 1548 1549 1550 1551 1552 1552 1553 1553 1554 1554 1554 1555 1555
1494 1499 1503 1507 1511 1514 1517 1519 1521 1524 1526 1529 1531 1533 1534 1536 1537 1539 1539 1540 1541 1541 1542 1542 1543 1544 1544 1545 1546 1546 1547 1549 1549 1551 1551 1552 1552 1553 1553 1554 1553 1554 1554
1490 1494 1499 1504 1507 1511 1514 1516 1519 1521 1524 1527 1529 1531 1533 1535 1537 1538 1539 1539 1540 1541 1541 1541 1542 1543 1543 1544 1544 1545 1546 1547 1548 1550 1551 1552 1552 1552 1552 1552 1553 1553 1553
1486 1491 1496 1501 1504 1508 1511 1513 1516 1519 1522 1524 1527 1529 1531 1533 1535 1536 1537 1538 1539 1539 1540 1541 1541 1542 1543 1543 1544 1544 1545 1546 1547 1548 1549 1550 1551 1551 1551 1551 1551 1551 1551
1483 1488 1494 1498 1501 1505 1508 1511 1513 1516 1519 1522 1524 1527 1529 1531 1532 1534 1535 1536 1537 1538 1539 1540 1540 1541 1542 1542 1543 1544 1544 1545 1546 1547 1548 1549 1549 1550 1550 1550 1550 1550 1550
1480 1485 1491 1495 1499 1503 1506 1508 1510 1513 1516 1519 1522 1524 1527 1529 1530 1532 1533 1535 1536 1537 1537 1538 1539 1540 1541 1542 1542 1543 1543 1544 1545 1546 1546 1547 1548 1549 1549 1549 1549 1549 1549
1479 1484 1489 1493 1496 1499 1503 1506 1508 1511 1514 1516 1519 1522 1524 1526 1528 1530 1531 1533 1534 1535 1535 1536 1537 1538 1539 1540 1541 1541 1542 1543 1544 1544 1545 1545 1546 1547 1547 1547 1548 1548 1547
1479 1483 1487 1491 1494 1497 1501 1503 1506 1509 1511 1514 1516 1519 1521 1523 1526 1528 1529 1531 1532 1533 1534 1535 1536 1537 1537 1538 1539 1540 1541 1542 1542 1543 1543 1543 1544 1544 1545 1545 1545 1545 1546
1477 1481 1485 1489 1492 1496 1498 1501 1504 1506 1509 1512 1513 1516 1518 1520 1523 1525 1526 1528 1529 1530 1532 1533 1534 1535 1535 1536 1537 1538 1539 1540 1540 1541 1541 1541 1542 1542 1543 1543 1543 1543 1543
1476 1480 1484 1487 1491 1494 1497 1500 1502 1505 1507 1508 1511 1513 1516 1518 1520 1522 1523 1525 1527 1528 1529 1531 1532 1532 1533 1534 1535 1536 1537 1538 1538 1539 1539 1539 1540 1540 1540 1540 1541 1541 1541
1477 1479 1483 1487 1489 1492 1495 1498 1500 1502 1504 1506 1508 1510 1513 1515 1517 1519 1521 1522 1524 1525 1527 1528 1529 1530 1531 1532 1533 1534 1535 1536 1536 1537 1537 1537 1537 1537 1537 1537 1538 1538 1538
1477 1479 1483 1486 1489 1491 1493 1496 1498 1500 1502 1504 1506 1508 1510 1512 1514 1516 1518 1520 1521 1522 1524 1525 1527 1528 1529 1529 1530 1531 1532 1533 1534 1534 1534 1534 1534 1534 1534 1535 1535 1535 1535
1478 1480 1483 1486 1488 1491 1492 1494 1497 1499 1500 1502 1504 1506 1508 1510 1512 1513 1515 1516 1518 1519 1520 1522 1523 1525 1526 1527 1527 1528 1529 1530 1531 1531 1531 1531 1531 1531 1531 1531 1531 1532 1532
1479 1481 1483 1485 1488 1490 1491 1493 1495 1497 1499 1500 1502 1504 1505 1507 1509 1510 1512 1513 1515 1516 1517 1519 1520 1522 1523 1523 1524 1525 1526 1527 1527 1528 1528 1528 1528 1528 1528 1528 1528 1529 1529
1480 1481 1483 1485 1487 1489 1490 1491 1493 1495 1497 1498 1500 1501 1503 1504 1506 1507 1509 1510 1512 1513 1515 1516 1517 1518 1519 1521 1521 1522 1523 1523 1524 1524 1524 1525 1524 1524 1524 1524 1524 1524 1525
1480 1481 1483 1484 1486 1487 1489 1490 1491 1492 1494 1496 1498 1499 1500 1502 1503 1505 1506 1507 1509 1510 1512 1513 1514 1515 1516 1517 1518 1518 1519 1520 1520 1520 1521 1521 1520 1520 1520 1520 1520 1520 1520
1481 1481 1482 1483 1485 1486 1487 1488 1489 1490 1492 1493 1495 1497 1498 1499 1500 1502 1503 1504 1506 1507 1508 1510 1511 1512 1512 1513 1514 1515 1515 1516 1516 1517 1517 1517 1516 1516 1517 1517 1516 1516 1516
1481 1481 1482 1482 1483 1484 1485 1487 1488 1489 1489 1491 1493 1494 1496 1496 1497 1499 1500 1502 1503 1504 1505 1506 1507 1508 1509 1510 1511 1511 1512 1512 1512 1513 1513 1513 1513 1513 1513 1513 1512 1512 1512
1481 1481 1481 1482 1482 1482 1483 1484 1485 1486 1487 1489 1490 1491 1493 1493 1494 1496 1497 1499 1500 1502 1503 1503 1504 1505 1505 1506 1507 1507 1508 1508 1508 1509 1509 1509 1509 1509 1509 1509 1509 1508 1508
1481 1481 1481 1481 1481 1481 1482 1482 1483 1484 1485 1487 1488 1489 1490 1491 1492 1493 1494 1496 1497 1498 1499 1500 1500 1501 1501 1502 1502 1503 1504 1504 1505 1505 1505 1505 1505 1505 1505 1505 1505 1504 1504
1481 1481 1481 1480 1480 1480 1480 1480 1481 1482 1483 1484 1485 1487 1488 1488 1489 1490 1491 1492 1494 1495 1495 1496 1497 1497 1497 1497 1498 1499 1500 1501 1501 1502 1502 1502 1502 1501 1501 1501 1501 1500 1500
1480 1480 1480 1480 1479 1479 1479 1479 1480 1480 1481 1482 1482 1484 1485 1485 1486 1486 1488 1489 1489 1490 1491 1492 1492 1493 1493 1493 1493 1494 1495 1496 1497 1498 1498 1499 1498 1498 1497 1497 1496 1496 1496
1479 1478 1478 1478 1478 1477 1477 1477 1477 1478 1479 1479 1480 1481 1482 1482 1482 1483 1483 1484 1485 1486 1487 1487 1488 1488 1489 1489 1489 1490 1491 1492 1493 1494 1494 1494 1494 1494 1493 1493 1493 1492 1492
1476 1476 1476 1476 1476 1475 1475 1475 1475 1476 1476 1476 1476 1477 1478 1478 1478 1479 1480 1480 1481 1482 1483 1483 1484 1484 1485 1486 1486 1487 1488 1489 1490 1490 1490 1490 1490 1490 1490 1489 1489 1489 1489